TimeCEST,TemperatureF,Dew PointF,Humidity,Sea Level PressureIn,VisibilityMPH,Wind Direction,Wind SpeedMPH,Gust SpeedMPH,PrecipitationIn,Events,Conditions,WindDirDegrees,DateUTC
12:25 AM,48.2,44.6,87,29.95,6.2,SSE,5.8,-,N/A,,Mostly Cloudy,160,2012-10-04 22:25:00
1:25 AM,50.0,44.6,82,29.92,6.2,South,10.4,-,N/A,,Mostly Cloudy,180,2012-10-04 23:25:00
2:00 AM,50,45,76,29.93,28,South,8.9,,,,Scattered Clouds,170,2012-10-05 00:00:00
2:25 AM,50.0,44.6,82,29.89,6.2,South,10.4,-,N/A,,Mostly Cloudy,180,2012-10-05 00:25:00
3:25 AM,51.8,46.4,82,29.86,6.2,South,9.2,-,N/A,,Mostly Cloudy,170,2012-10-05 01:25:00
4:25 AM,51.8,48.2,88,29.83,6.2,South,10.4,-,N/A,Rain,Light Rain Showers,180,2012-10-05 02:25:00
5:00 AM,53,48,79,29.84,25,South,11.2,,,Rain,Light Rain Showers,180,2012-10-05 03:00:00
5:25 AM,53.6,50.0,88,29.80,6.2,South,11.5,-,N/A,Rain,Light Rain,180,2012-10-05 03:25:00
6:25 AM,53.6,50.0,88,29.77,6.2,South,12.7,-,N/A,Rain,Light Rain,180,2012-10-05 04:25:00
6:30 AM,53.6,51.8,94,29.77,6.2,South,12.7,-,N/A,Rain,Light Rain,180,2012-10-05 04:30:00
7:25 AM,55.4,51.8,88,29.74,6.2,South,13.8,-,N/A,Rain,Light Rain,180,2012-10-05 05:25:00
7:43 AM,55.4,53.6,94,29.71,6.2,South,15.0,-,N/A,Rain,Light Rain,190,2012-10-05 05:43:00
8:00 AM,56,53,86,29.73,15,South,15.7,,,Rain,Light Rain,190,2012-10-05 06:00:00
8:17 AM,57.2,53.6,88,29.71,6.2,SSW,17.3,-,N/A,Rain,Light Rain,200,2012-10-05 06:17:00
8:25 AM,57.2,53.6,88,29.71,6.2,SSW,17.3,-,N/A,Rain,Light Rain,200,2012-10-05 06:25:00
9:25 AM,59.0,55.4,88,29.71,6.2,SSW,15.0,-,N/A,Rain,Light Rain,200,2012-10-05 07:25:00
10:25 AM,60.8,55.4,82,29.71,6.2,SSW,15.0,28.8,N/A,,Mostly Cloudy,210,2012-10-05 08:25:00
11:00 AM,62,55,71,29.73,14,SW,17.9,,,,Overcast,220,2012-10-05 09:00:00
11:25 AM,62.6,55.4,77,29.71,6.2,SSW,17.3,-,N/A,,Mostly Cloudy,210,2012-10-05 09:25:00
12:25 PM,64.4,55.4,73,29.74,6.2,SW,17.3,-,N/A,,Mostly Cloudy,220,2012-10-05 10:25:00
1:25 PM,64.4,57.2,77,29.77,6.2,SW,18.4,-,N/A,,Mostly Cloudy,230,2012-10-05 11:25:00
1:41 PM,59.0,57.2,94,29.77,2.8,West,19.6,-,N/A,Rain,Rain Showers,270,2012-10-05 11:41:00
2:00 PM,57,55,89,29.80,3,WNW,15.7,,,Rain,Light Rain Showers,300,2012-10-05 12:00:00
2:03 PM,57.2,55.4,94,29.80,2.2,WNW,12.7,-,N/A,Rain,Light Rain Showers,290,2012-10-05 12:03:00
2:13 PM,55.4,53.6,94,29.80,-9999.0,West,15.0,-,N/A,Rain,Light Rain,280,2012-10-05 12:13:00
2:25 PM,55.4,53.6,94,29.80,-9999.0,West,12.7,-,N/A,Rain,Light Rain,280,2012-10-05 12:25:00
3:25 PM,55.4,53.6,94,29.80,-9999.0,West,8.1,-,N/A,Rain,Rain Showers,270,2012-10-05 13:25:00
4:17 PM,55.4,55.4,100,29.83,-9999.0,West,6.9,-,N/A,Rain,Rain Showers,260,2012-10-05 14:17:00
4:25 PM,55.4,55.4,100,29.83,-9999.0,WSW,6.9,-,N/A,Rain,Rain Showers,250,2012-10-05 14:25:00
4:47 PM,57.2,55.4,94,29.83,6.2,West,6.9,-,N/A,,Mostly Cloudy,260,2012-10-05 14:47:00
5:00 PM,57,55,91,29.85,8,WSW,11.2,,,Rain,Rain,250,2012-10-05 15:00:00
5:12 PM,59.0,55.4,88,29.83,6.2,WSW,10.4,-,N/A,,Mostly Cloudy,250,2012-10-05 15:12:00
5:18 PM,59.0,55.4,88,29.83,6.2,WSW,11.5,-,N/A,,Scattered Clouds,250,2012-10-05 15:18:00
5:24 PM,59.0,55.4,88,29.83,6.2,West,10.4,-,N/A,,Mostly Cloudy,260,2012-10-05 15:24:00
5:25 PM,59.0,55.4,88,29.83,6.2,West,10.4,-,N/A,,Mostly Cloudy,260,2012-10-05 15:25:00
6:12 PM,59.0,55.4,88,29.83,6.2,WSW,8.1,-,N/A,,Mostly Cloudy,250,2012-10-05 16:12:00
6:22 PM,59.0,55.4,88,29.83,6.2,West,5.8,-,N/A,,Mostly Cloudy,270,2012-10-05 16:22:00
6:25 PM,59.0,55.4,88,29.86,6.2,West,5.8,-,N/A,,Mostly Cloudy,270,2012-10-05 16:25:00
7:17 PM,57.2,53.6,88,29.86,6.2,West,5.8,-,N/A,,Mostly Cloudy,270,2012-10-05 17:17:00
7:25 PM,57.2,53.6,88,29.86,6.2,West,5.8,-,N/A,,Mostly Cloudy,260,2012-10-05 17:25:00
7:48 PM,57.2,53.6,88,29.86,6.2,Variable,3.5,-,N/A,,Overcast,0,2012-10-05 17:48:00
8:00 PM,57,54,85,29.88,22,,4.5,,,,Clear,,2012-10-05 18:00:00
8:03 PM,57.2,55.4,94,29.86,6.2,Variable,3.5,-,N/A,,Mostly Cloudy,0,2012-10-05 18:03:00
8:25 PM,57.2,55.4,94,29.86,6.2,Variable,2.3,-,N/A,,Mostly Cloudy,0,2012-10-05 18:25:00
8:28 PM,57.2,55.4,94,29.86,6.2,SW,4.6,-,N/A,,Mostly Cloudy,220,2012-10-05 18:28:00
8:51 PM,57.2,55.4,94,29.86,4.3,SW,5.8,-,N/A,,Drizzle,230,2012-10-05 18:51:00
8:58 PM,57.2,55.4,94,29.86,6.2,SW,6.9,-,N/A,Rain,Light Rain Showers,230,2012-10-05 18:58:00
9:04 PM,57.2,55.4,94,29.86,6.2,SW,6.9,-,N/A,Rain,Light Rain Showers,230,2012-10-05 19:04:00
9:25 PM,57.2,55.4,94,29.86,5.0,WSW,6.9,-,N/A,Rain,Light Rain Showers,250,2012-10-05 19:25:00
9:43 PM,57.2,55.4,94,29.89,6.2,WSW,6.9,-,N/A,,Overcast,250,2012-10-05 19:43:00
10:25 PM,57.2,55.4,94,29.89,6.2,West,4.6,-,N/A,,Mostly Cloudy,280,2012-10-05 20:25:00
10:38 PM,57.2,55.4,94,29.89,6.2,West,5.8,-,N/A,,Overcast,270,2012-10-05 20:38:00
10:48 PM,57.2,55.4,94,29.89,6.2,WSW,5.8,-,N/A,,Overcast,250,2012-10-05 20:48:00
11:00 PM,57,55,91,29.89,22,WSW,4.5,,,,Clear,240,2012-10-05 21:00:00
11:25 PM,57.2,55.4,94,29.86,6.2,Variable,3.5,-,N/A,,Overcast,0,2012-10-05 21:25:00